Tracking 20232 objects as of 18-Jan-2020
HD Live streaming from Space Station
objects crossing your sky now

TOPEX/POSEIDON

Track TOPEX/POSEIDON now!
10-day predictions
TOPEX/POSEIDON is classified as:


NORAD ID: 22076
Int'l Code: 1992-052A
Perigee: 1,338.3 km
Apogee: 1,350.7 km
Inclination: 66.0 °
Period: 112.4 minutes
Semi major axis: 7715 km
RCS: 8.6832 m2 (large)
Launch date: August 10, 1992
Source: United States (US)
Launch site: FRENCH GUIANA (FRGUI)
aabbcc
Your satellite tracking list
Your tracking list is empty




NASA's NSSDC Master Catalog

Two Line Element Set (TLE):
1 22076U 92052A   20017.87555008 -.00000047  00000-0  61779-4 0  9999
2 22076  66.0419 318.4034 0008086 269.5922 152.7792 12.81024589283517
Source of the keplerian elements: AFSPC